Whiteman AFB, MO

4:07 AM CST on December 14, 2019 (GMT -0600)
Whiteman Air Force Base

Weather History for KSZL - October, 2019

Change the Weather History Date:

Tuesday, October 8, 2019

  Actual Average Record
Temperature  
Mean Temperature 58 °F -  
Max Temperature 71 °F 68 °F 85 °F (2010)
Min Temperature 45 °F 48 °F 26 °F (2000)
Degree Days  
Heating Degree Days 7    
Growing Degree Days 8 (Base 50)    
Moisture  
Dew Point 47 °F    
Average Humidity 72    
Maximum Humidity 100    
Minimum Humidity 39    
Precipitation  
Precipitation 0.00 in - - ()
Sea Level Pressure  
Sea Level Pressure 30.09 in    
Wind  
Wind Speed 5 mph (SSE)    
Max Wind Speed 15 mph    
Max Gust Speed -    
Visibility 10 miles    
Events      
Averages and records for this station are not official NWS values.
T = Trace of Precipitation, MM = Missing Value Source: NWS Daily Summary

Daily Weather History Graph

Daily Weather History Graph

Search for Another Location

Airport or City:

Astronomy

Oct. 08, 2019 Rise Set
Actual Time 7:16 AM CDT 6:46 PM CDT
Civil Twilight 6:49 AM CDT 7:13 PM CDT
Nautical Twilight 6:19 AM CDT 7:43 PM CDT
Astronomical Twilight 5:48 AM CDT 8:14 PM CDT
Moon 4:42 PM CDT (10/8) 2:10 AM CDT (10/8)
Length of Visible Light 12h 23m
Length of Day
11h 29m
Waxing Gibbous, 78% of the Moon is Illuminated
Oct 8
Waxing Gibbous
Oct 13
Full
Oct 21
Last Quarter
Oct 27
New
Nov 4
First Quarter

Hourly Weather History & Observations

Time (CDT) Temp. Windchill Dew Point Humidity Pressure Visibility Wind Dir Wind Speed Gust Speed Precip Events Conditions
12:56 AM 48.7 °F - 48.4 °F 99% 30.16 in 10.0 mi Calm Calm - N/A   Clear
1:57 AM 48.4 °F - 48.4 °F 100% 30.15 in 10.0 mi Calm Calm - N/A   Clear
2:56 AM 45.7 °F 43.4 °F 45.7 °F 100% 30.15 in 10.0 mi South 4.6 mph - N/A   Clear
3:56 AM 46.6 °F - 46.6 °F 100% 30.15 in 10.0 mi South 3.5 mph - N/A   Clear
4:56 AM 46.4 °F 44.3 °F 46.4 °F 100% 30.15 in 10.0 mi South 4.6 mph - N/A   Clear
5:56 AM 45.7 °F 43.4 °F 45.7 °F 100% 30.15 in 10.0 mi South 4.6 mph - N/A   Clear
6:56 AM 45.7 °F 43.4 °F 45.7 °F 100% 30.15 in 10.0 mi South 4.6 mph - N/A   Clear
7:56 AM 46.2 °F 44.1 °F 46.2 °F 100% 30.15 in 10.0 mi South 4.6 mph - N/A   Clear
8:56 AM 52.5 °F - 52.5 °F 100% 30.17 in 10.0 mi South 6.9 mph - N/A   Clear
9:56 AM 60.1 °F - 51.8 °F 74% 30.16 in 10.0 mi South 8.1 mph - N/A   Clear
10:56 AM 65.3 °F - 48.7 °F 55% 30.16 in 10.0 mi South 12.7 mph - N/A   Clear
11:56 AM 68.2 °F - 45.5 °F 44% 30.13 in 10.0 mi South 15.0 mph - N/A   Clear
12:56 PM 69.6 °F - 46.0 °F 43% 30.11 in 10.0 mi South 10.4 mph - N/A   Clear
1:56 PM 70.3 °F - 45.5 °F 41% 30.06 in 10.0 mi South 15.0 mph - N/A   Clear
2:56 PM 71.2 °F - 45.7 °F 40% 30.05 in 10.0 mi South 15.0 mph - N/A   Clear
3:56 PM 71.6 °F - 45.3 °F 39% 30.03 in 10.0 mi South 9.2 mph - N/A   Clear
4:56 PM 70.5 °F - 46.2 °F 42% 30.01 in 10.0 mi South 11.5 mph - N/A   Clear
5:56 PM 67.3 °F - 46.4 °F 47% 30.01 in 10.0 mi South 8.1 mph - N/A   Clear
6:56 PM 63.3 °F - 45.9 °F 53% 30.00 in 10.0 mi SSE 5.8 mph - N/A   Clear
7:56 PM 59.5 °F - 46.9 °F 63% 30.01 in 10.0 mi SE 4.6 mph - N/A   Clear
8:56 PM 56.8 °F - 47.5 °F 71% 30.01 in 10.0 mi SE 5.8 mph - N/A   Clear
9:56 PM 56.1 °F - 48.0 °F 74% 30.01 in 10.0 mi SSE 5.8 mph - N/A   Clear
10:56 PM 57.2 °F - 46.8 °F 68% 29.99 in 10.0 mi SSE 9.2 mph - N/A   Clear
11:56 PM 55.8 °F - 46.6 °F 71% 29.99 in 10.0 mi SSE 9.2 mph - N/A   Clear